RH
91 91 87 84 80 80 80 79 80 79 77 71 74 76 75 72 71 72 78 77 78 74 72 65 68 68 70 72 64 67 69 71 77 81 81 77 70 75 77 79 76 64 65
88 86 88 85 83 83 82 79 83 84 80 74 76 77 70 68 67 69 72 73 74 73 65 66 68 70 72 74 74 72 72 72 72 78 86 84 82 77 76 78 76 65 67
87 82 84 86 86 85 83 81 81 78 77 76 79 73 72 67 65 66 68 68 67 64 66 69 70 71 72 74 76 77 77 76 78 79 82 87 80 76 74 75 76 75 73
82 82 84 88 87 86 83 82 80 76 73 80 80 76 70 67 67 66 68 71 65 66 68 73 74 74 72 70 72 72 71 74 79 78 73 75 62 71 71 72 69 73 70
81 82 85 88 88 87 83 80 78 77 75 83 81 80 74 68 69 69 72 74 67 67 71 75 76 76 73 70 70 70 70 77 81 76 83 86 83 64 64 64 66 71 70
81 87 90 89 90 89 87 83 77 77 77 84 83 84 77 70 71 73 75 77 74 74 76 76 77 76 75 72 69 69 72 76 75 79 84 78 78 65 63 64 65 67 70
90 90 88 89 90 90 88 84 80 78 78 83 84 81 79 73 69 73 76 78 78 77 76 75 75 78 77 74 71 70 73 79 72 82 85 85 77 66 64 63 62 64 65
90 89 85 91 91 89 86 84 81 82 81 82 86 84 79 77 73 74 75 76 77 76 75 75 74 73 72 70 69 70 76 80 69 82 85 88 77 66 66 64 63 62 64
85 90 93 92 91 91 89 87 84 86 85 86 86 88 85 85 80 74 77 77 75 75 76 76 75 73 72 70 68 72 76 81 80 79 70 84 76 67 66 65 64 62 63
88 93 97 95 89 93 93 88 89 90 89 88 90 91 90 90 88 86 84 83 80 78 78 77 75 74 72 69 68 73 72 75 78 72 79 90 73 67 67 64 64 62 62
85 90 92 93 91 94 94 86 90 89 90 93 92 90 90 92 91 90 90 86 86 83 80 78 77 74 77 78 75 72 74 73 75 71 82 83 71 68 67 66 64 62 62
89 92 88 83 85 87 72 90 93 89 94 89 88 90 87 88 89 83 91 89 87 87 86 81 80 80 80 80 80 79 78 70 68 72 82 79 68 68 70 69 65 64 63
89 88 82 71 70 78 81 88 86 90 97 94 88 86 84 80 90 96 98 96 97 93 96 94 94 94 88 84 77 78 71 66 61 62 75 77 68 62 67 74 71 67 65
88 85 77 75 70 73 77 80 78 70 71 79 84 80 75 83 90 97 98 97 97 96 96 96 98 94 90 80 68 67 62 58 59 59 75 80 74 63 62 68 76 74 70
84 84 80 77 78 73 71 79 77 73 67 59 66 70 65 69 69 71 81 92 93 94 92 91 89 82 79 71 69 68 63 62 60 58 66 87 78 75 65 64 68 74 75
83 79 79 80 81 82 77 70 72 66 61 69 68 66 65 69 67 67 67 71 74 73 67 66 68 71 74 77 73 71 70 70 68 65 66 73 84 79 76 66 65 68 69
84 89 86 80 78 77 78 71 73 74 62 67 68 66 66 71 71 72 74 75 70 64 60 66 68 75 79 75 78 74 73 73 73 71 69 72 76 86 80 69 67 68 70
87 84 85 80 79 79 78 76 71 72 68 66 65 71 67 66 70 73 74 78 79 74 70 75 79 80 83 84 83 79 76 70 64 62 64 73 77 69 79 81 78 73 71
75 76 80 82 83 78 78 81 81 75 74 68 66 71 64 67 68 75 77 76 75 81 83 81 82 79 75 73 74 72 74 78 76 66 73 76 80 76 70 82 85 83 82
75 72 84 85 84 80 85 85 86 83 79 73 72 70 69 70 70 77 79 79 76 74 73 73 74 77 78 78 76 77 87 86 88 87 81 74 77 78 80 75 86 89 90
72 81 84 88 89 91 93 94 93 82 84 80 80 74 68 68 67 71 81 79 72 71 72 73 78 79 81 86 90 92 94 91 90 88 86 85 80 77 74 75 80 84 82
48 83 88 85 88 87 90 91 91 96 94 93 92 85 80 74 74 73 78 85 84 86 85 86 92 92 90 86 90 92 94 85 81 81 88 86 77 73 70 70 70 73 81
38 62 75 80 83 88 88 90 94 92 93 94 94 93 89 82 89 87 90 91 93 95 95 96 96 97 98 96 90 91 95 95 95 83 79 79 71 74 69 68 66 73 85
35 41 50 67 85 90 88 94 95 96 97 97 93 92 82 74 72 70 70 74 84 92 97 97 95 97 98 98 96 96 96 96 97 90 90 87 74 66 77 70 72 81 84
50 49 45 51 68 73 86 93 97 96 95 80 79 72 64 69 70 71 72 74 74 80 83 87 88 90 96 97 97 96 92 93 94 98 95 93 93 91 83 80 80 81 78
61 60 58 52 54 60 71 84 95 94 76 67 67 74 76 78 78 76 75 80 81 83 87 89 90 91 94 95 95 94 95 95 96 93 97 93 90 91 79 76 75 83 86
Wind_Speed
11 14 20 18 18 17 16 16 17 15 13 14 14 17 18 16 16 16 18 19 19 19 18 18 18 17 16 15 14 14 15 14 15 15 13 13 14 16 16 13 14 9 14
16 15 21 19 16 16 14 15 15 15 12 13 14 19 18 16 16 16 16 18 19 19 16 17 17 16 14 12 12 12 12 10 9 9 12 10 11 17 20 19 15 12 14
16 14 15 18 17 16 16 16 16 14 12 12 16 18 18 17 16 16 15 16 17 17 16 15 15 15 13 11 12 12 11 8 7 5 7 5 9 18 17 15 13 14 15
16 13 13 18 18 18 16 15 15 14 13 13 17 17 18 17 16 16 16 16 17 15 15 14 14 13 11 10 10 11 10 10 11 12 7 8 8 14 14 13 12 13 14
14 12 13 18 19 18 16 15 15 14 14 12 16 17 18 17 16 17 16 15 15 15 14 13 14 12 10 9 9 11 14 12 10 12 7 6 5 10 13 13 11 11 11
11 11 15 18 19 17 16 14 14 14 15 13 15 17 18 17 17 16 16 14 14 13 12 13 13 12 10 8 9 11 13 14 8 7 7 8 5 12 13 13 13 12 11
12 12 12 18 19 17 15 13 13 14 15 13 16 19 18 17 17 16 15 14 13 12 12 12 12 11 9 8 8 9 11 11 5 6 6 6 5 11 11 12 12 12 11
13 12 13 16 17 16 14 13 12 12 13 13 13 18 18 17 16 15 14 13 12 11 10 11 10 9 8 6 5 6 7 8 6 6 5 5 8 10 10 10 11 11 11
14 11 10 11 13 14 13 11 11 10 8 10 10 17 16 16 14 14 13 12 11 10 9 8 8 7 6 5 4 5 6 7 4 3 5 3 7 8 8 8 9 10 10
13 12 8 8 9 8 7 12 11 9 6 11 9 13 11 12 12 11 9 9 10 9 8 7 6 5 4 2 1 2 5 7 4 1 4 3 7 6 6 6 7 8 8
12 12 10 7 7 6 6 8 11 11 10 10 9 10 9 5 7 8 7 9 8 8 7 6 5 4 3 3 4 4 4 2 3 2 3 7 7 5 4 4 4 5 6
13 12 11 10 8 7 6 6 6 6 4 5 5 6 4 5 5 6 7 9 8 7 6 6 6 6 4 2 3 5 2 3 2 3 3 8 7 5 5 4 3 3 4
6 9 8 11 11 8 6 4 3 3 3 4 6 6 4 4 4 4 3 3 3 6 3 4 4 3 4 4 4 4 4 4 2 1 4 9 7 6 5 7 6 5 4
7 10 9 7 9 8 6 5 4 5 5 4 5 7 5 3 4 5 3 4 4 3 5 5 3 4 5 6 6 6 4 3 2 2 4 10 9 8 7 7 9 8 6
15 9 9 10 8 7 8 6 5 5 6 7 5 6 5 5 5 5 4 4 4 4 4 5 4 4 5 6 5 5 5 5 5 3 3 9 10 9 9 9 9 10 9
8 8 9 9 9 6 6 6 5 3 7 5 5 6 6 5 5 4 4 5 4 4 4 4 4 4 3 2 3 4 5 5 5 5 4 5 11 12 11 11 10 10 11
11 8 5 6 7 8 7 6 5 4 4 6 5 7 7 6 5 6 4 3 4 4 4 2 2 2 2 2 3 4 4 6 5 6 5 4 5 10 12 12 11 11 12
7 9 13 9 7 8 7 6 4 2 3 4 6 5 7 6 6 5 4 3 4 3 3 3 3 2 3 3 3 5 4 4 5 6 4 3 4 4 8 12 11 11 11
10 9 9 8 8 8 7 4 4 3 3 3 5 5 8 7 7 5 4 4 4 3 3 3 3 3 3 2 3 3 3 4 5 3 5 5 6 5 4 6 9 8 8
8 9 8 6 8 8 5 5 3 3 3 2 3 4 7 6 7 6 4 5 5 3 3 3 4 3 3 3 3 3 4 4 4 5 5 5 4 1 4 5 3 3 6
7 7 9 10 8 5 3 3 3 4 3 2 2 4 5 6 7 7 5 5 3 3 3 2 2 2 3 2 2 2 4 5 6 5 5 4 3 4 5 4 3 1 2
9 9 9 11 8 6 5 4 4 4 3 3 2 4 4 5 5 5 5 3 2 2 2 0 1 1 2 3 3 2 4 4 3 3 4 3 4 3 4 5 5 5 5
9 9 9 12 11 9 8 4 3 3 2 2 2 2 2 5 5 5 5 4 3 1 2 2 2 3 3 2 4 3 3 3 2 3 3 1 3 3 4 4 4 6 7
9 7 9 8 9 7 7 5 6 5 4 4 3 3 4 5 5 5 5 4 3 0 2 3 1 2 2 4 2 3 3 2 2 3 2 3 2 0 2 1 5 6 7
6 4 4 3 5 6 7 6 4 3 2 3 3 6 6 5 6 5 5 4 3 1 1 2 2 2 1 2 3 1 1 2 3 3 4 4 4 2 0 4 4 5 6
6 4 4 5 3 3 5 6 6 7 7 5 3 5 5 4 3 4 5 4 2 2 2 1 2 2 3 3 2 3 3 2 2 4 3 4 5 3 4 4 4 5 4
Wind_Direction
150 146 142 140 135 135 135 130 121 110 105 108 114 110 95 89 88 89 92 98 96 94 91 91 90 90 86 85 87 89 85 83 77 65 81 64 64 60 54 64 77 66 64
142 144 142 142 138 131 122 114 106 108 115 118 117 101 96 93 92 92 96 99 96 94 93 89 90 88 85 85 84 85 81 78 76 63 71 62 65 69 64 68 71 68 63
138 143 138 136 131 125 121 118 115 118 120 122 115 104 99 96 98 98 96 95 94 94 93 94 93 90 86 80 78 78 67 51 46 72 103 91 59 54 56 65 68 59 60
137 140 137 135 132 128 127 123 122 122 120 119 114 111 102 101 105 105 101 97 101 101 95 92 91 92 85 74 69 63 48 43 75 77 69 53 46 56 58 53 53 53 50
136 137 138 136 134 130 128 126 125 124 123 118 120 115 107 105 105 107 105 97 108 107 102 95 95 95 89 70 56 49 41 51 94 78 73 67 51 58 57 57 53 53 54
136 134 138 138 133 129 130 129 129 128 126 119 127 117 112 110 110 111 112 109 114 111 106 98 95 98 87 64 44 39 37 47 67 82 78 69 61 65 60 58 58 58 57
127 132 133 138 132 132 130 130 134 135 133 124 137 125 118 115 116 116 117 119 118 116 109 100 95 94 89 68 40 31 27 26 63 104 97 84 68 68 64 62 62 61 58
130 133 138 131 130 128 129 129 134 137 137 133 132 129 125 122 122 123 122 123 124 120 113 105 101 99 95 82 50 23 23 21 59 100 106 105 82 71 69 65 63 63 63
130 126 130 132 130 125 124 123 128 126 138 145 135 137 136 130 129 130 129 130 130 126 120 114 112 109 101 84 54 13 0 3 40 152 129 126 101 82 75 72 67 66 66
132 128 124 131 128 123 125 125 121 113 117 156 128 130 133 129 127 129 131 134 136 133 130 128 128 127 124 128 113 324 328 349 352 96 127 152 123 104 90 79 71 68 69
134 135 134 135 131 128 124 134 132 123 112 119 124 138 132 132 137 140 146 144 146 149 152 152 159 168 190 226 251 262 298 305 320 160 155 157 138 141 126 103 89 82 75
143 145 147 151 153 148 140 138 140 141 139 140 146 166 158 149 148 153 151 159 160 168 177 184 197 211 223 230 252 273 260 276 286 173 172 172 163 175 178 173 155 131 112
147 128 146 159 154 151 144 155 158 155 158 172 179 193 179 160 157 151 157 171 171 190 208 213 230 227 222 212 233 230 246 245 229 118 198 187 190 196 213 205 205 192 173
133 141 151 162 150 161 158 165 178 170 173 190 201 203 154 159 167 165 176 182 191 193 205 211 225 229 240 240 205 217 220 221 243 204 206 202 203 213 220 234 218 216 208
153 172 165 153 160 170 167 165 183 193 186 196 185 202 169 172 177 167 196 188 196 198 194 218 218 225 223 232 233 224 234 232 238 241 213 214 206 215 226 236 244 231 221
142 167 149 178 163 169 166 184 190 185 181 171 174 179 177 164 179 184 174 184 199 187 200 188 202 233 251 246 261 249 248 244 237 226 213 212 211 210 216 229 241 249 253
164 148 180 160 165 173 186 194 191 194 195 168 179 173 175 161 178 170 172 196 202 194 202 206 258 209 236 261 268 268 263 255 247 241 230 214 218 221 214 224 232 242 251
154 174 165 199 200 181 188 185 194 202 215 176 171 165 182 182 172 166 180 201 217 217 202 194 206 246 260 254 261 266 274 266 263 247 246 238 216 222 223 225 225 237 250
178 175 184 180 186 176 184 188 199 197 215 180 160 178 190 180 182 171 191 223 222 197 190 205 225 203 225 247 246 260 284 304 297 291 269 253 229 231 217 211 225 239 252
188 181 166 181 187 186 183 179 186 189 243 189 206 177 177 184 182 177 185 207 218 223 228 186 207 228 216 248 283 301 292 282 274 268 270 269 236 202 160 144 149 229 247
174 171 177 162 184 165 152 152 169 181 201 190 166 235 201 194 188 179 187 205 214 208 215 204 173 229 259 164 255 293 288 265 262 258 252 247 238 178 151 142 135 68 26
171 180 180 180 181 180 177 175 159 174 198 205 201 200 182 175 148 155 171 195 156 180 210 233 68 278 266 230 231 266 278 301 278 288 288 240 195 151 132 108 113 96 88
179 183 185 182 179 183 185 151 115 95 57 107 212 169 105 108 88 114 131 142 112 61 261 247 208 225 261 294 235 217 304 249 322 336 8 320 180 144 147 130 115 103 94
201 193 180 178 174 198 177 179 175 177 165 207 164 116 112 99 89 78 72 71 92 8 269 276 253 231 207 250 324 249 230 176 260 302 346 321 302 242 163 158 112 110 114
122 148 119 141 148 155 148 174 171 191 178 138 129 125 121 103 104 97 82 65 57 42 351 331 312 283 247 223 214 286 314 256 223 223 268 292 338 317 187 129 103 96 80
129 129 118 137 151 170 167 173 181 167 160 148 167 166 156 148 127 109 100 100 84 57 46 3 337 307 271 250 238 250 226 233 269 233 228 248 239 275 62 52 69 91 90